Raleigh, NC

12:19 PM EST on February 08, 2016 (GMT -0500)
Raleigh-Durham International

Weather History for KRDU - December, 2013

Change the Weather History Date:

Sunday, December 22, 2013

  Actual Average Record
Temperature  
Mean Temperature 71 °F 42 °F  
Max Temperature 78 °F 52 °F 78 °F (2013)
Min Temperature 64 °F 32 °F 9 °F (1976)
Degree Days  
Heating Degree Days 0 23  
Month to date heating degree days 382 455  
Since 1 July heating degree days 1034 1036  
Cooling Degree Days 6 0  
Month to date cooling degree days 13 0  
Year to date cooling degree days 1565 1728  
Growing Degree Days 21 (Base 50)    
Moisture  
Dew Point 63 °F    
Average Humidity 75    
Maximum Humidity 93    
Minimum Humidity 56    
Precipitation  
Precipitation 0.28 in 0.10 in 2.34 in (1908)
Month to date precipitation 1.99 2.17  
Year to date precipitation 46.77 42.44  
Snow  
Snow 0.00 in 0.00 in 4.60 in (1935)
Month to date snowfall 0.0 0.3  
Since 1 July snowfall T 0.4  
Snow Depth 0.00 in    
Sea Level Pressure  
Sea Level Pressure 30.06 in    
Wind  
Wind Speed 14 mph (SSW)    
Max Wind Speed 26 mph    
Max Gust Speed 35 mph    
Visibility 9 miles    
Events Rain    
T = Trace of Precipitation, MM = Missing Value Source: NWS Daily Summary

Daily Weather History Graph

Daily Weather History Graph

Search for Another Location

Airport or City:

Trip Planner

Search our weather history database for the weather conditions in past years. The results will help you decide how hot, cold, wet, or windy it might be!

Date:

Astronomy

Dec. 22, 2013 Rise Set
Actual Time 7:22 AM EST 5:05 PM EST
Civil Twilight 6:53 AM EST 5:34 PM EST
Nautical Twilight 6:21 AM EST 6:06 PM EST
Astronomical Twilight 5:50 AM EST 6:37 PM EST
Moon 10:07 PM EST (12/22) 10:25 AM EST (12/22)
Length of Visible Light 10h 40m
Length of Day
9h 43m
Waning Gibbous, 77% of the Moon is Illuminated
Dec 22
Waning Gibbous
Dec 25
Last Quarter
Jan 1
New
Jan 7
First Quarter
Jan 15
Full

Hourly Weather History & Observations

Time (EST) Temp. Dew Point Humidity Pressure Visibility Wind Dir Wind Speed Gust Speed Precip Events Conditions
12:51 AM 70.0 °F 64.0 °F 81% 30.04 in 10.0 mi SSW 16.1 mph 23.0 mph N/A   Overcast
1:51 AM 70.0 °F 64.0 °F 81% 30.04 in 10.0 mi SSW 20.7 mph 26.5 mph N/A   Overcast
2:51 AM 69.1 °F 64.0 °F 84% 30.04 in 10.0 mi SSW 13.8 mph 23.0 mph N/A   Mostly Cloudy
3:51 AM 69.1 °F 64.0 °F 84% 30.04 in 9.0 mi South 9.2 mph - N/A   Overcast
4:51 AM 70.0 °F 64.0 °F 81% 30.04 in 10.0 mi SW 16.1 mph 21.9 mph N/A   Overcast
5:51 AM 70.0 °F 64.9 °F 84% 30.02 in 10.0 mi SSW 20.7 mph 28.8 mph 0.00 in   Overcast
6:51 AM 70.0 °F 64.9 °F 84% 30.03 in 9.0 mi SSW 18.4 mph 27.6 mph N/A   Overcast
7:51 AM 70.0 °F 64.9 °F 84% 30.05 in 10.0 mi SW 17.3 mph 27.6 mph N/A   Overcast
8:51 AM 71.1 °F 64.9 °F 81% 30.04 in 10.0 mi SSW 17.3 mph 25.3 mph N/A   Mostly Cloudy
9:51 AM 72.0 °F 64.9 °F 78% 30.07 in 10.0 mi SSW 18.4 mph 28.8 mph N/A   Mostly Cloudy
10:51 AM 73.0 °F 64.9 °F 76% 30.08 in 10.0 mi SSW 16.1 mph 23.0 mph N/A   Mostly Cloudy
11:51 AM 75.9 °F 64.0 °F 67% 30.07 in 10.0 mi SW 19.6 mph 27.6 mph N/A   Mostly Cloudy
12:22 PM 78.8 °F 62.6 °F 57% 30.06 in 10.0 mi SW 18.4 mph 33.4 mph N/A   Mostly Cloudy
12:51 PM 77.0 °F 62.1 °F 60% 30.04 in 10.0 mi SW 25.3 mph 34.5 mph N/A   Mostly Cloudy
1:51 PM 77.0 °F 61.0 °F 58% 30.04 in 10.0 mi SW 13.8 mph 27.6 mph N/A   Mostly Cloudy
2:51 PM 77.0 °F 61.0 °F 58% 30.03 in 10.0 mi SSW 17.3 mph 21.9 mph N/A   Mostly Cloudy
3:51 PM 75.9 °F 60.1 °F 58% 30.04 in 10.0 mi SW 15.0 mph 21.9 mph N/A   Overcast
4:51 PM 75.0 °F 61.0 °F 62% 30.06 in 10.0 mi SSW 9.2 mph - N/A   Overcast
5:51 PM 71.1 °F 60.1 °F 68% 30.09 in 10.0 mi Variable 5.8 mph - N/A   Overcast
6:51 PM 66.0 °F 60.1 °F 81% 30.11 in 9.0 mi Variable 3.5 mph - 0.01 in Rain Light Rain
7:17 PM 64.4 °F 62.6 °F 94% 30.14 in 1.5 mi Variable 5.8 mph - 0.09 in Rain Rain
7:23 PM 64.4 °F 62.6 °F 94% 30.12 in 3.0 mi SSE 5.8 mph - 0.20 in Rain Rain
7:51 PM 64.9 °F 62.1 °F 90% 30.10 in 7.0 mi South 9.2 mph - 0.24 in Rain Light Rain
8:51 PM 66.0 °F 62.1 °F 87% 30.07 in 10.0 mi South 3.5 mph - 0.02 in   Overcast
9:51 PM 64.9 °F 62.1 °F 90% 30.06 in 10.0 mi SSE 6.9 mph - N/A   Overcast
10:51 PM 66.0 °F 62.1 °F 87% 30.06 in 10.0 mi South 5.8 mph - N/A   Overcast
11:51 PM 66.9 °F 63.0 °F 87% 30.04 in 10.0 mi South 17.3 mph 20.7 mph 0.01 in   Mostly Cloudy